,,,PA_Meas_PMT16A,,PR_Meas_QMR101_102,,RH_Meas_QMH101,,SR_Meas_QMS101,,TA_Meas_QMH101,,GenWind,,GenWind,
date,time,status,PA,status,PR,status,RH,status,SR,status,TA,status,DirAvg,status,SpdAvg,
2009-01-22, 00:00:04,VALID,1005.05,VALID,0,VALID,89.4639,VALID,0,VALID,25.3195,VALID,34,VALID,0.866406,
2009-01-22, 00:01:04,VALID,1005.04,VALID,0,VALID,89.5325,VALID,0,VALID,25.3195,VALID,353,VALID,0.969531,
2009-01-22, 00:02:04,VALID,1005.05,VALID,0,VALID,89.4639,VALID,0.100563,VALID,25.337,VALID,15,VALID,1.01367,
2009-01-22, 00:03:04,VALID,1005.07,VALID,0,VALID,89.2732,VALID,0,VALID,25.376,VALID,355,VALID,0.528516,
2009-01-22, 00:04:04,VALID,1005.07,VALID,0,VALID,89.1664,VALID,0,VALID,25.337,VALID,23,VALID,0.996484,
2009-01-22, 00:05:04,VALID,1005.08,VALID,0,VALID,88.8231,VALID,0,VALID,25.3779,VALID,23,VALID,1.29805,
2009-01-22, 00:06:04,VALID,1005.05,VALID,0,VALID,88.7239,VALID,0,VALID,25.4363,VALID,35,VALID,1.01992,
2009-01-22, 00:07:04,VALID,1005,VALID,0,VALID,87.9228,VALID,0,VALID,25.3955,VALID,14,VALID,1.80977,
2009-01-22, 00:08:04,VALID,1005,VALID,0,VALID,87.9457,VALID,0,VALID,25.4539,VALID,27,VALID,1.05234,
2009-01-22, 00:09:04,VALID,1004.96,VALID,0,VALID,87.3812,VALID,0,VALID,25.5337,VALID,15,VALID,2.31523,
2009-01-22, 00:10:04,VALID,1004.96,VALID,0,VALID,87.3125,VALID,0,VALID,25.5532,VALID,25,VALID,1.86836,
2009-01-22, 00:11:04,VALID,1004.92,VALID,0,VALID,87.2896,VALID,0,VALID,25.5532,VALID,44,VALID,1.33203,
2009-01-22, 00:12:04,VALID,1004.92,VALID,0,VALID,87.3507,VALID,0,VALID,25.5337,VALID,41,VALID,1.26328,
2009-01-22, 00:13:04,VALID,1004.92,VALID,0,VALID,87.5567,VALID,0,VALID,25.4928,VALID,348,VALID,0.487891,
2009-01-22, 00:14:04,VALID,1004.87,VALID,0,VALID,87.6253,VALID,0,VALID,25.4539,VALID,29,VALID,1.60977,
2009-01-22, 00:15:04,VALID,1004.87,VALID,0,VALID,87.7855,VALID,0,VALID,25.4558,VALID,16,VALID,1.8582,
2009-01-22, 00:16:04,VALID,1004.86,VALID,0,VALID,88.0068,VALID,0,VALID,25.4363,VALID,17,VALID,0.973047,
2009-01-22, 00:17:04,VALID,1004.87,VALID,0,VALID,88.0907,VALID,0,VALID,25.3779,VALID,356,VALID,1.37812,
2009-01-22, 00:18:04,VALID,1004.85,VALID,0,VALID,88.2661,VALID,0,VALID,25.3565,VALID,349,VALID,0.911328,
2009-01-22, 00:19:04,VALID,1004.86,VALID,0,VALID,88.3272,VALID,0,VALID,25.339,VALID,344,VALID,1.18164,
2009-01-22, 00:20:04,VALID,1004.86,VALID,0,VALID,88.5179,VALID,0,VALID,25.2981,VALID,15,VALID,1.64805,
2009-01-22, 00:21:04,VALID,1004.85,VALID,0,VALID,88.6628,VALID,0,VALID,25.2786,VALID,33,VALID,1.49063,
2009-01-22, 00:22:04,VALID,1004.87,VALID,0,VALID,88.7925,VALID,0,VALID,25.2786,VALID,11,VALID,0.818359,
2009-01-22, 00:23:04,VALID,1004.87,VALID,0,VALID,88.968,VALID,0,VALID,25.2397,VALID,5,VALID,0.900391,
2009-01-22, 00:24:04,VALID,1004.85,VALID,0,VALID,89.0672,VALID,0,VALID,25.2221,VALID,25,VALID,2.01094,
2009-01-22, 00:25:04,VALID,1004.87,VALID,0,VALID,89.2503,VALID,0,VALID,25.2007,VALID,14,VALID,0.863672,
2009-01-22, 00:26:04,VALID,1004.82,VALID,0,VALID,89.3113,VALID,0,VALID,25.2221,VALID,353,VALID,1.08242,
2009-01-22, 00:27:04,VALID,1004.83,VALID,0,VALID,89.4563,VALID,0,VALID,25.2007,VALID,353,VALID,1.21133,
2009-01-22, 00:28:04,VALID,1004.84,VALID,0,VALID,89.3952,VALID,0,VALID,25.2027,VALID,354,VALID,0.559766,
2009-01-22, 00:29:04,VALID,1004.83,VALID,0,VALID,89.4486,VALID,0,VALID,25.1813,VALID,349,VALID,1.08477,
2009-01-22, 00:30:04,VALID,1004.84,VALID,0,VALID,89.6012,VALID,0,VALID,25.1832,VALID,23,VALID,0.737109,
2009-01-22, 00:31:04,VALID,1004.82,VALID,0,VALID,89.708,VALID,0.100563,VALID,25.1618,VALID,350,VALID,0.992969,
2009-01-22, 00:32:04,VALID,1004.85,VALID,0,VALID,89.853,VALID,0,VALID,25.1618,VALID,352,VALID,0.696875,
2009-01-22, 00:33:04,VALID,1004.84,VALID,0,VALID,89.8987,VALID,0,VALID,25.1618,VALID,17,VALID,0.61875,
2009-01-22, 00:34:04,VALID,1004.76,VALID,0,VALID,90.0284,VALID,0.100563,VALID,25.2027,VALID,310,VALID,0.621094,
2009-01-22, 00:35:04,VALID,1004.72,VALID,0,VALID,90.1734,VALID,0,VALID,25.2007,VALID,351,VALID,1.66016,
2009-01-22, 00:36:04,VALID,1004.7,VALID,0,VALID,90.036,VALID,0,VALID,25.3,VALID,14,VALID,1.37539,
2009-01-22, 00:37:04,VALID,1004.67,VALID,0,VALID,89.7614,VALID,0,VALID,25.3779,VALID,6,VALID,0.774609,
2009-01-22, 00:38:04,VALID,1004.65,VALID,0,VALID,89.5097,VALID,0,VALID,25.376,VALID,358,VALID,0.864062,
2009-01-22, 00:39:04,VALID,1004.63,VALID,0,VALID,89.5631,VALID,0,VALID,25.3974,VALID,45,VALID,1.74102,
2009-01-22, 00:40:04,VALID,1004.68,VALID,0,VALID,89.5554,VALID,0,VALID,25.4383,VALID,8,VALID,1.18164,
2009-01-22, 00:41:04,VALID,1004.68,VALID,0,VALID,89.5249,VALID,0,VALID,25.4344,VALID,61,VALID,0.760547,
2009-01-22, 00:42:04,VALID,1004.68,VALID,0,VALID,89.4486,VALID,0,VALID,25.4558,VALID,35,VALID,1.62734,
2009-01-22, 00:43:04,VALID,1004.68,VALID,0,VALID,89.5478,VALID,0,VALID,25.4344,VALID,347,VALID,0.900781,
2009-01-22, 00:44:04,VALID,1004.65,VALID,0,VALID,89.6241,VALID,0,VALID,25.4169,VALID,25,VALID,0.766797,
2009-01-22, 00:45:04,VALID,1004.62,VALID,0,VALID,89.7309,VALID,0,VALID,25.3974,VALID,16,VALID,0.782812,
2009-01-22, 00:46:04,VALID,1004.56,VALID,0,VALID,89.7614,VALID,0,VALID,25.3974,VALID,8,VALID,0.867188,
2009-01-22, 00:47:04,VALID,1004.58,VALID,0,VALID,89.7996,VALID,0,VALID,25.376,VALID,11,VALID,1.6875,
2009-01-22, 00:48:04,VALID,1004.56,VALID,0,VALID,89.8835,VALID,0,VALID,25.3779,VALID,4,VALID,0.652344,
2009-01-22, 00:49:04,VALID,1004.59,VALID,0,VALID,89.8911,VALID,0,VALID,25.3584,VALID,352,VALID,0.916797,
2009-01-22, 00:50:04,VALID,1004.59,VALID,0,VALID,89.9903,VALID,0,VALID,25.339,VALID,359,VALID,0.878906,
2009-01-22, 00:51:04,VALID,1004.6,VALID,0,VALID,90.0589,VALID,0,VALID,25.2981,VALID,11,VALID,0.672266,
2009-01-22, 00:52:04,VALID,1004.57,VALID,0,VALID,90.1581,VALID,0,VALID,25.3019,VALID,15,VALID,0.523828,
2009-01-22, 00:53:04,VALID,1004.56,VALID,0,VALID,90.3183,VALID,0,VALID,25.2611,VALID,358,VALID,1.01445,
2009-01-22, 00:54:04,VALID,1004.53,VALID,0,VALID,90.4022,VALID,0,VALID,25.2397,VALID,23,VALID,0.695313,
2009-01-22, 00:55:04,VALID,1004.52,VALID,0,VALID,90.4556,VALID,0,VALID,25.2611,VALID,9,VALID,0.61875,
2009-01-22, 00:56:04,VALID,1004.52,VALID,0,VALID,90.4709,VALID,0,VALID,25.2416,VALID,338,VALID,0.588281,
2009-01-22, 00:57:04,VALID,1004.51,VALID,0,VALID,90.4633,VALID,0,VALID,25.2007,VALID,345,VALID,0.325781,
2009-01-22, 00:58:04,VALID,1004.47,VALID,0,VALID,90.5243,VALID,0,VALID,25.2027,VALID,350,VALID,1.56367,
2009-01-22, 00:59:04,VALID,1004.46,VALID,0,VALID,90.5777,VALID,0,VALID,25.2027,VALID,354,VALID,0.639453,
2009-01-22, 01:00:04,VALID,1004.48,VALID,0,VALID,90.6311,VALID,0,VALID,25.1637,VALID,12,VALID,0.544922,
2009-01-22, 01:01:04,VALID,1004.48,VALID,0,VALID,90.7074,VALID,0,VALID,25.1248,VALID,24,VALID,1.17617,
2009-01-22, 01:02:04,VALID,1004.49,VALID,0,VALID,90.7989,VALID,0,VALID,25.1229,VALID,35,VALID,0.883594,
2009-01-22, 01:03:04,VALID,1004.47,VALID,0,VALID,90.8295,VALID,0,VALID,25.1442,VALID,36,VALID,1.10312,
2009-01-22, 01:04:04,VALID,1004.43,VALID,0,VALID,90.8752,VALID,0,VALID,25.1248,VALID,14,VALID,1.01914,
2009-01-22, 01:05:04,VALID,1004.39,VALID,0,VALID,90.8905,VALID,0,VALID,25.1442,VALID,7,VALID,0.532031,
2009-01-22, 01:06:04,VALID,1004.35,VALID,0,VALID,90.8447,VALID,0,VALID,25.1229,VALID,333,VALID,0.785937,
2009-01-22, 01:07:04,VALID,1004.35,VALID,0,VALID,90.776,VALID,0,VALID,25.1656,VALID,349,VALID,0.497266,
2009-01-22, 01:08:04,VALID,1004.34,VALID,0,VALID,90.8142,VALID,0,VALID,25.1229,VALID,354,VALID,0.691406,
2009-01-22, 01:09:04,VALID,1004.33,VALID,0,VALID,90.8905,VALID,0,VALID,25.0858,VALID,12,VALID,0.648047,
2009-01-22, 01:10:04,VALID,1004.36,VALID,0,VALID,90.9057,VALID,0,VALID,25.1053,VALID,25,VALID,0.569922,
2009-01-22, 01:11:04,VALID,1004.34,VALID,0,VALID,90.9515,VALID,0,VALID,25.0858,VALID,40,VALID,0.580078,
2009-01-22, 01:12:04,VALID,1004.34,VALID,0,VALID,90.9439,VALID,0,VALID,25.1053,VALID,26,VALID,1.10586,
2009-01-22, 01:13:04,VALID,1004.31,VALID,0,VALID,90.8371,VALID,0,VALID,25.1442,VALID,22,VALID,0.127734,
2009-01-22, 01:14:04,VALID,1004.33,VALID,0,VALID,90.7379,VALID,0,VALID,25.1442,VALID,13,VALID,0.530859,
2009-01-22, 01:15:04,VALID,1004.26,VALID,0,VALID,90.7684,VALID,0,VALID,25.1034,VALID,354,VALID,0.990234,
2009-01-22, 01:16:04,VALID,1004.24,VALID,0,VALID,90.654,VALID,0,VALID,25.1442,VALID,25,VALID,1.20508,
2009-01-22, 01:17:04,VALID,1004.22,VALID,0,VALID,90.509,VALID,0,VALID,25.1423,VALID,338,VALID,0.517578,
2009-01-22, 01:18:04,VALID,1004.21,VALID,0,VALID,90.448,VALID,0,VALID,25.1618,VALID,353,VALID,1.49844,
2009-01-22, 01:19:04,VALID,1004.18,VALID,0,VALID,90.3031,VALID,0,VALID,25.1832,VALID,336,VALID,0.929688,
2009-01-22, 01:20:04,VALID,1004.17,VALID,0,VALID,90.2878,VALID,0,VALID,25.1851,VALID,28,VALID,0.597656,
2009-01-22, 01:21:04,VALID,1004.18,VALID,0.5,VALID,90.1963,VALID,0,VALID,25.1423,VALID,349,VALID,1.11406,
2009-01-22, 01:22:04,VALID,1004.17,VALID,0,VALID,90.1429,VALID,0,VALID,25.1832,VALID,339,VALID,1.36719,
2009-01-22, 01:23:04,VALID,1004.2,VALID,0,VALID,90.0971,VALID,0,VALID,25.1832,VALID,4,VALID,0.916016,
2009-01-22, 01:24:04,VALID,1004.21,VALID,0,VALID,89.9216,VALID,0,VALID,25.2221,VALID,1,VALID,1.08047,
2009-01-22, 01:25:04,VALID,1004.26,VALID,0,VALID,89.7538,VALID,0,VALID,25.2007,VALID,2,VALID,1.25937,
2009-01-22, 01:26:04,VALID,1004.24,VALID,0,VALID,89.708,VALID,0,VALID,25.2416,VALID,32,VALID,0.797656,
2009-01-22, 01:27:04,VALID,1004.23,VALID,0,VALID,89.7461,VALID,0.100563,VALID,25.2202,VALID,9,VALID,0.669922,
2009-01-22, 01:28:04,VALID,1004.21,VALID,0,VALID,89.769,VALID,0,VALID,25.2027,VALID,4,VALID,1.5125,
2009-01-22, 01:29:04,VALID,1004.16,VALID,0,VALID,89.6088,VALID,0,VALID,25.2202,VALID,340,VALID,0.873438,
2009-01-22, 01:30:04,VALID,1004.16,VALID,0,VALID,89.5325,VALID,0,VALID,25.2611,VALID,347,VALID,1.23281,
2009-01-22, 01:31:04,VALID,1004.13,VALID,0,VALID,89.5173,VALID,0,VALID,25.2611,VALID,346,VALID,0.802344,
2009-01-22, 01:32:04,VALID,1004.13,VALID,0,VALID,89.3876,VALID,0.100563,VALID,25.2397,VALID,350,VALID,0.987891,
2009-01-22, 01:33:04,VALID,1004.08,VALID,0,VALID,89.3342,VALID,0,VALID,25.2397,VALID,358,VALID,0.59375,
2009-01-22, 01:34:04,VALID,1004.08,VALID,0,VALID,89.3342,VALID,0,VALID,25.2416,VALID,354,VALID,0.704297,
2009-01-22, 01:35:04,VALID,1004.04,VALID,0,VALID,89.4486,VALID,0,VALID,25.1813,VALID,11,VALID,1.06953,
2009-01-22, 01:36:04,VALID,1004.02,VALID,0,VALID,89.5707,VALID,0,VALID,25.2027,VALID,2,VALID,0.555859,
2009-01-22, 01:37:04,VALID,1003.99,VALID,0,VALID,89.6851,VALID,0,VALID,25.1637,VALID,9,VALID,0.817578,
2009-01-22, 01:38:04,VALID,1003.99,VALID,0,VALID,89.7461,VALID,0.100563,VALID,25.1229,VALID,337,VALID,0.875391,
2009-01-22, 01:39:04,VALID,1004,VALID,0,VALID,89.7996,VALID,0,VALID,25.1248,VALID,24,VALID,0.825,
2009-01-22, 01:40:04,VALID,1004,VALID,0,VALID,89.8606,VALID,0,VALID,25.1248,VALID,8,VALID,0.455078,
2009-01-22, 01:41:04,VALID,1003.97,VALID,0,VALID,89.9292,VALID,0,VALID,25.1034,VALID,354,VALID,1.26758,
2009-01-22, 01:42:04,VALID,1003.96,VALID,0,VALID,89.8987,VALID,0.100563,VALID,25.1248,VALID,4,VALID,1.29141,
2009-01-22, 01:43:04,VALID,1003.94,VALID,0,VALID,89.7767,VALID,0,VALID,25.1442,VALID,344,VALID,1.10547,
2009-01-22, 01:44:04,VALID,1003.91,VALID,0,VALID,89.6851,VALID,0,VALID,25.1423,VALID,37,VALID,1.25117,
2009-01-22, 01:45:04,VALID,1003.89,VALID,0,VALID,89.6317,VALID,0,VALID,25.1832,VALID,2,VALID,0.571484,
2009-01-22, 01:46:04,VALID,1003.88,VALID,0,VALID,89.6393,VALID,0,VALID,25.1618,VALID,10,VALID,1.12539,
2009-01-22, 01:47:04,VALID,1003.86,VALID,0,VALID,89.6851,VALID,0,VALID,25.1618,VALID,14,VALID,1.57695,
2009-01-22, 01:48:04,VALID,1003.85,VALID,0,VALID,89.502,VALID,0,VALID,25.2221,VALID,14,VALID,1.41875,
2009-01-22, 01:49:04,VALID,1003.84,VALID,0,VALID,89.3418,VALID,0,VALID,25.2027,VALID,341,VALID,0.763672,
2009-01-22, 01:50:04,VALID,1003.81,VALID,0,VALID,89.3494,VALID,0,VALID,25.2027,VALID,356,VALID,0.760156,
2009-01-22, 01:51:04,VALID,1003.82,VALID,0,VALID,89.3723,VALID,0,VALID,25.1423,VALID,338,VALID,1.07969,
2009-01-22, 01:52:04,VALID,1003.78,VALID,0,VALID,89.4105,VALID,0.100563,VALID,25.1618,VALID,346,VALID,0.8125,
2009-01-22, 01:53:04,VALID,1003.75,VALID,0,VALID,89.4334,VALID,0,VALID,25.1656,VALID,344,VALID,0.474219,
2009-01-22, 01:54:04,VALID,1003.75,VALID,0,VALID,89.502,VALID,0,VALID,25.1034,VALID,335,VALID,0.457812,
2009-01-22, 01:55:04,VALID,1003.8,VALID,0,VALID,89.5859,VALID,0.100563,VALID,25.0839,VALID,344,VALID,1.05391,
2009-01-22, 01:56:04,VALID,1003.8,VALID,0,VALID,89.6241,VALID,0,VALID,25.0644,VALID,354,VALID,0.757813,
2009-01-22, 01:57:04,VALID,1003.74,VALID,0,VALID,89.7385,VALID,0,VALID,25.045,VALID,355,VALID,0.830469,
2009-01-22, 01:58:04,VALID,1003.76,VALID,0,VALID,89.8911,VALID,0,VALID,25.0255,VALID,342,VALID,0.930078,
2009-01-22, 01:59:04,VALID,1003.74,VALID,0,VALID,89.8911,VALID,0,VALID,25.0274,VALID,350,VALID,0.924219,
2009-01-22, 02:00:04,VALID,1003.73,VALID,0,VALID,89.975,VALID,0.100563,VALID,25.006,VALID,3,VALID,1.02539,
2009-01-22, 02:01:04,VALID,1003.7,VALID,0,VALID,90.0055,VALID,0,VALID,25.0255,VALID,346,VALID,0.703125,
2009-01-22, 02:02:04,VALID,1003.66,VALID,0,VALID,90.0055,VALID,0,VALID,25.0079,VALID,358,VALID,0.891797,
2009-01-22, 02:03:04,VALID,1003.65,VALID,0,VALID,90.0971,VALID,0,VALID,24.9476,VALID,314,VALID,0.701172,
2009-01-22, 02:04:04,VALID,1003.59,VALID,0,VALID,90.1505,VALID,0,VALID,24.9885,VALID,323,VALID,0.411328,
2009-01-22, 02:05:04,VALID,1003.59,VALID,0,VALID,90.2344,VALID,0,VALID,24.9495,VALID,346,VALID,0.5375,
2009-01-22, 02:06:04,VALID,1003.55,VALID,0,VALID,90.3031,VALID,0.100563,VALID,24.9087,VALID,351,VALID,0.767187,
2009-01-22, 02:07:04,VALID,1003.53,VALID,0,VALID,90.3565,VALID,0.100563,VALID,24.9106,VALID,346,VALID,0.757813,
2009-01-22, 02:08:04,VALID,1003.49,VALID,0,VALID,90.448,VALID,0.100563,VALID,24.8679,VALID,354,VALID,1.1375,
2009-01-22, 02:09:04,VALID,1003.48,VALID,0,VALID,90.509,VALID,0,VALID,24.8503,VALID,351,VALID,0.837891,
2009-01-22, 02:10:04,VALID,1003.47,VALID,0,VALID,90.6158,VALID,0,VALID,24.8503,VALID,360,VALID,0.769531,
2009-01-22, 02:11:04,VALID,1003.44,VALID,0,VALID,90.6769,VALID,0,VALID,24.8308,VALID,6,VALID,0.495313,
2009-01-22, 02:12:04,VALID,1003.39,VALID,0,VALID,90.7837,VALID,0,VALID,24.8113,VALID,350,VALID,1.04102,
2009-01-22, 02:13:04,VALID,1003.39,VALID,0,VALID,90.8447,VALID,0.100563,VALID,24.8308,VALID,349,VALID,0.838281,
2009-01-22, 02:14:04,VALID,1003.37,VALID,0,VALID,90.8447,VALID,0,VALID,24.8113,VALID,341,VALID,0.75,
2009-01-22, 02:15:04,VALID,1003.38,VALID,0,VALID,90.8218,VALID,0.100563,VALID,24.8113,VALID,350,VALID,0.599609,
2009-01-22, 02:16:04,VALID,1003.32,VALID,0,VALID,90.8752,VALID,0,VALID,24.8113,VALID,358,VALID,0.642578,
2009-01-22, 02:17:04,VALID,1003.34,VALID,0,VALID,90.8523,VALID,0.100563,VALID,24.7919,VALID,357,VALID,0.569531,
2009-01-22, 02:18:04,VALID,1003.32,VALID,0,VALID,90.8676,VALID,0,VALID,24.7919,VALID,345,VALID,0.587109,
2009-01-22, 02:19:04,VALID,1003.33,VALID,0,VALID,90.9286,VALID,0.100563,VALID,24.8308,VALID,32,VALID,1.07891,
2009-01-22, 02:20:04,VALID,1003.33,VALID,0,VALID,90.8295,VALID,0,VALID,24.8503,VALID,7,VALID,0.841016,
2009-01-22, 02:21:04,VALID,1003.32,VALID,0,VALID,90.6311,VALID,0.100563,VALID,24.9087,VALID,356,VALID,0.734766,
2009-01-22, 02:22:04,VALID,1003.32,VALID,0,VALID,90.4785,VALID,0,VALID,24.9495,VALID,21,VALID,0.926172,
2009-01-22, 02:23:04,VALID,1003.27,VALID,0,VALID,90.4099,VALID,0.100563,VALID,24.9671,VALID,352,VALID,1.18672,
2009-01-22, 02:24:04,VALID,1003.25,VALID,0,VALID,90.2573,VALID,0,VALID,25.0079,VALID,354,VALID,0.735937,
2009-01-22, 02:25:04,VALID,1003.18,VALID,0,VALID,90.0284,VALID,0,VALID,25.045,VALID,356,VALID,0.685938,
2009-01-22, 02:26:04,VALID,1003.16,VALID,0,VALID,89.8377,VALID,0,VALID,25.0839,VALID,2,VALID,1.0375,
2009-01-22, 02:27:04,VALID,1003.1,VALID,0,VALID,89.6699,VALID,0.100563,VALID,25.1229,VALID,338,VALID,0.760547,
2009-01-22, 02:28:04,VALID,1003.1,VALID,0,VALID,89.5478,VALID,0,VALID,25.1248,VALID,353,VALID,0.735547,
2009-01-22, 02:29:04,VALID,1003.05,VALID,0,VALID,89.4563,VALID,0,VALID,25.1442,VALID,316,VALID,0.640625,
2009-01-22, 02:30:04,VALID,1003.05,VALID,0,VALID,89.4105,VALID,0.100563,VALID,25.1229,VALID,338,VALID,0.945703,
2009-01-22, 02:31:04,VALID,1003.02,VALID,0,VALID,89.4334,VALID,0.100563,VALID,25.1229,VALID,7,VALID,0.657812,
2009-01-22, 02:32:04,VALID,1003.03,VALID,0,VALID,89.3723,VALID,0,VALID,25.1229,VALID,22,VALID,1.75977,
2009-01-22, 02:33:04,VALID,1003.07,VALID,0,VALID,89.3571,VALID,0.100563,VALID,25.1637,VALID,30,VALID,0.890234,
2009-01-22, 02:34:04,VALID,1003.09,VALID,0,VALID,89.2884,VALID,0.100563,VALID,25.1618,VALID,16,VALID,0.310547,
2009-01-22, 02:35:04,VALID,1003.09,VALID,0,VALID,89.2732,VALID,0,VALID,25.1637,VALID,355,VALID,0.528516,
2009-01-22, 02:36:04,VALID,1003.13,VALID,0,VALID,89.3113,VALID,0.100563,VALID,25.1229,VALID,358,VALID,0.293359,
2009-01-22, 02:37:04,VALID,1003.12,VALID,0,VALID,89.3723,VALID,0.100563,VALID,25.1053,VALID,359,VALID,0.453125,
2009-01-22, 02:38:04,VALID,1003.1,VALID,0,VALID,89.4791,VALID,0,VALID,25.0858,VALID,29,VALID,0.588672,
2009-01-22, 02:39:04,VALID,1003.12,VALID,0,VALID,89.4791,VALID,0,VALID,25.0839,VALID,17,VALID,0.563281,
2009-01-22, 02:40:04,VALID,1003.14,VALID,0,VALID,89.5173,VALID,0,VALID,25.0644,VALID,16,VALID,0.298438,
2009-01-22, 02:41:04,VALID,1003.17,VALID,0,VALID,89.5402,VALID,0,VALID,25.0663,VALID,17,VALID,0.305469,
2009-01-22, 02:42:04,VALID,1003.17,VALID,0,VALID,89.6241,VALID,0,VALID,25.0255,VALID,360,VALID,1.00898,
2009-01-22, 02:43:04,VALID,1003.17,VALID,0,VALID,89.6546,VALID,0,VALID,25.0663,VALID,338,VALID,0.715234,
2009-01-22, 02:44:04,VALID,1003.19,VALID,0,VALID,89.5936,VALID,0,VALID,25.0236,VALID,13,VALID,0.280469,
2009-01-22, 02:45:04,VALID,1003.22,VALID,0,VALID,89.6241,VALID,0,VALID,25.0858,VALID,4,VALID,0.894922,
2009-01-22, 02:46:04,VALID,1003.26,VALID,0,VALID,89.502,VALID,0,VALID,25.0858,VALID,5,VALID,0.478906,
2009-01-22, 02:47:04,VALID,1003.26,VALID,0,VALID,89.5554,VALID,0,VALID,25.1053,VALID,25,VALID,0.375781,
2009-01-22, 02:48:04,VALID,1003.26,VALID,0,VALID,89.6241,VALID,0,VALID,25.1053,VALID,30,VALID,1.80977,
2009-01-22, 02:49:04,VALID,1003.25,VALID,0,VALID,89.4944,VALID,0,VALID,25.1034,VALID,20,VALID,0.598047,
2009-01-22, 02:50:04,VALID,1003.29,VALID,0,VALID,89.4181,VALID,0,VALID,25.1442,VALID,355,VALID,0.7375,
2009-01-22, 02:51:04,VALID,1003.3,VALID,0,VALID,89.3876,VALID,0,VALID,25.1229,VALID,317,VALID,0.934766,
2009-01-22, 02:52:04,VALID,1003.35,VALID,0,VALID,89.3342,VALID,0,VALID,25.1229,VALID,336,VALID,0.291797,
2009-01-22, 02:53:04,VALID,1003.35,VALID,0,VALID,89.3494,VALID,0,VALID,25.1034,VALID,336,VALID,0.296094,
2009-01-22, 02:54:04,VALID,1003.34,VALID,0,VALID,89.38,VALID,0,VALID,25.0858,VALID,335,VALID,0.465234,
2009-01-22, 02:55:04,VALID,1003.35,VALID,0,VALID,89.4944,VALID,0.100563,VALID,25.0663,VALID,298,VALID,0.484766,
2009-01-22, 02:56:04,VALID,1003.34,VALID,0,VALID,89.6165,VALID,0,VALID,25.0255,VALID,297,VALID,0.204688,
2009-01-22, 02:57:04,VALID,1003.36,VALID,0,VALID,89.6622,VALID,0,VALID,25.006,VALID,256,VALID,0.617578,
2009-01-22, 02:58:04,VALID,1003.39,VALID,0,VALID,89.8148,VALID,0,VALID,24.969,VALID,251,VALID,0.104687,
2009-01-22, 02:59:04,VALID,1003.46,VALID,0,VALID,89.9521,VALID,0,VALID,24.9106,VALID,251,VALID,0.0148437,
2009-01-22, 03:00:04,VALID,1003.5,VALID,0,VALID,90.036,VALID,0,VALID,24.8503,VALID,251,VALID,0,
2009-01-22, 03:01:04,VALID,1003.57,VALID,0,VALID,90.1276,VALID,0,VALID,24.7919,VALID,251,VALID,0,
2009-01-22, 03:02:04,VALID,1003.58,VALID,0,VALID,90.2497,VALID,0,VALID,24.7743,VALID,251,VALID,0,
2009-01-22, 03:03:04,VALID,1003.59,VALID,0,VALID,90.4099,VALID,0,VALID,24.6945,VALID,251,VALID,0,
2009-01-22, 03:04:04,VALID,1003.62,VALID,0,VALID,90.5777,VALID,0,VALID,24.6556,VALID,251,VALID,0.0457031,
2009-01-22, 03:05:04,VALID,1003.62,VALID,0,VALID,90.7913,VALID,0,VALID,24.638,VALID,251,VALID,0.247266,
2009-01-22, 03:06:04,VALID,1003.63,VALID,0,VALID,90.9363,VALID,0.100563,VALID,24.599,VALID,251,VALID,0.25625,
2009-01-22, 03:07:04,VALID,1003.62,VALID,0,VALID,91.0965,VALID,0.100563,VALID,24.5582,VALID,251,VALID,0.367578,
2009-01-22, 03:08:04,VALID,1003.65,VALID,0,VALID,91.2796,VALID,0,VALID,24.4998,VALID,251,VALID,0.503906,
2009-01-22, 03:09:04,VALID,1003.63,VALID,0,VALID,91.4703,VALID,0.100563,VALID,24.4804,VALID,251,VALID,0.414844,
2009-01-22, 03:10:04,VALID,1003.6,VALID,0,VALID,91.6,VALID,0,VALID,24.4628,VALID,251,VALID,0.511719,
2009-01-22, 03:11:04,VALID,1003.6,VALID,0,VALID,91.7297,VALID,0,VALID,24.383,VALID,251,VALID,0.307422,
2009-01-22, 03:12:04,VALID,1003.57,VALID,0,VALID,91.9204,VALID,0,VALID,24.3849,VALID,251,VALID,0.335938,
2009-01-22, 03:13:04,VALID,1003.55,VALID,0,VALID,92.0272,VALID,0,VALID,24.3459,VALID,251,VALID,0.192578,
2009-01-22, 03:14:04,VALID,1003.58,VALID,0,VALID,92.134,VALID,0.100563,VALID,24.3052,VALID,251,VALID,0.117969,
2009-01-22, 03:15:04,VALID,1003.56,VALID,0,VALID,92.1798,VALID,0,VALID,24.307,VALID,251,VALID,0,
2009-01-22, 03:16:04,VALID,1003.56,VALID,0,VALID,92.2408,VALID,0,VALID,24.2875,VALID,251,VALID,0,
2009-01-22, 03:17:04,VALID,1003.55,VALID,0,VALID,92.3095,VALID,0,VALID,24.2681,VALID,251,VALID,0.0648438,
2009-01-22, 03:18:04,VALID,1003.57,VALID,0,VALID,92.3934,VALID,0,VALID,24.2468,VALID,251,VALID,0,
2009-01-22, 03:19:04,VALID,1003.55,VALID,0,VALID,92.401,VALID,0.100563,VALID,24.2273,VALID,251,VALID,0.251953,
2009-01-22, 03:20:04,VALID,1003.54,VALID,0,VALID,92.4391,VALID,0,VALID,24.1884,VALID,251,VALID,0.463281,
2009-01-22, 03:21:04,VALID,1003.52,VALID,0,VALID,92.4849,VALID,0,VALID,24.1707,VALID,251,VALID,0.478125,
2009-01-22, 03:22:04,VALID,1003.56,VALID,0,VALID,92.5917,VALID,0.100563,VALID,24.1123,VALID,251,VALID,0.491406,
2009-01-22, 03:23:04,VALID,1003.53,VALID,0,VALID,92.6146,VALID,0,VALID,24.0521,VALID,319,VALID,0.523828,
2009-01-22, 03:24:04,VALID,1003.5,VALID,0,VALID,92.7138,VALID,0,VALID,24.0345,VALID,319,VALID,0.454688,
2009-01-22, 03:25:04,VALID,1003.5,VALID,0,VALID,92.874,VALID,0.100563,VALID,24.015,VALID,319,VALID,0.308984,
2009-01-22, 03:26:04,VALID,1003.51,VALID,0,VALID,93.0418,VALID,0.100563,VALID,23.9937,VALID,319,VALID,0.323828,
2009-01-22, 03:27:04,VALID,1003.49,VALID,0,VALID,93.1563,VALID,0,VALID,23.9955,VALID,321,VALID,0.41875,
2009-01-22, 03:28:04,VALID,1003.5,VALID,0,VALID,93.2631,VALID,0,VALID,23.9937,VALID,324,VALID,0.232812,
2009-01-22, 03:29:04,VALID,1003.51,VALID,0,VALID,93.2631,VALID,0,VALID,24.015,VALID,324,VALID,0.0882813,
2009-01-22, 03:30:04,VALID,1003.51,VALID,0,VALID,93.3622,VALID,0.100563,VALID,24.015,VALID,324,VALID,0.323047,
2009-01-22, 03:31:04,VALID,1003.54,VALID,0,VALID,93.3699,VALID,0,VALID,23.9955,VALID,324,VALID,0.266797,
2009-01-22, 03:32:04,VALID,1003.55,VALID,0,VALID,93.2325,VALID,0,VALID,23.9566,VALID,324,VALID,0,
2009-01-22, 03:33:04,VALID,1003.57,VALID,0,VALID,93.2173,VALID,0,VALID,23.9177,VALID,324,VALID,0.39375,
2009-01-22, 03:34:04,VALID,1003.59,VALID,0,VALID,93.2936,VALID,0,VALID,23.8769,VALID,324,VALID,0.365234,
2009-01-22, 03:35:04,VALID,1003.61,VALID,0,VALID,93.3928,VALID,0,VALID,23.8575,VALID,324,VALID,0.369531,
2009-01-22, 03:36:04,VALID,1003.61,VALID,0,VALID,93.4385,VALID,0,VALID,23.8593,VALID,324,VALID,0.350781,
2009-01-22, 03:37:04,VALID,1003.61,VALID,0,VALID,93.4996,VALID,0,VALID,23.838,VALID,324,VALID,0.354688,
2009-01-22, 03:38:04,VALID,1003.62,VALID,0,VALID,93.5301,VALID,0,VALID,23.8185,VALID,324,VALID,0.355469,
2009-01-22, 03:39:04,VALID,1003.57,VALID,0,VALID,93.5835,VALID,0,VALID,23.8203,VALID,324,VALID,0.475,
2009-01-22, 03:40:04,VALID,1003.58,VALID,0,VALID,93.6216,VALID,0,VALID,23.7991,VALID,324,VALID,0.469141,
2009-01-22, 03:41:04,VALID,1003.58,VALID,0,VALID,93.614,VALID,0,VALID,23.7796,VALID,324,VALID,0.534375,
2009-01-22, 03:42:04,VALID,1003.6,VALID,0,VALID,93.6292,VALID,0.100563,VALID,23.7407,VALID,324,VALID,0.450391,
2009-01-22, 03:43:04,VALID,1003.59,VALID,0,VALID,93.6598,VALID,0,VALID,23.7425,VALID,324,VALID,0.489062,
2009-01-22, 03:44:04,VALID,1003.58,VALID,0,VALID,93.6826,VALID,0.100563,VALID,23.6823,VALID,324,VALID,0.404687,